Current weather by "City, St" or "zip code"  
 

Current Conditions: Philadelphia, Northeast Philadelphia Airport, PA

Light Freezing Rain Fog/Mist


35.0 F

Last Updated on Feb 20 2019, 7:54 pm EST
Humidity: 85%
Wind Speed: NE 6.9 mph
Barometer 30.26 in
Dewpoint: 30.9 F
Visibility: 2.00 mi
Precip: 00.03 in
Heat Index: NA
Wind Chill: 29 F
Current conditions at:

Philadelphia, Northeast Philadelphia Airport, PA (KPNE)

Lat: 40.07 Lon: 75.013

Local Radar Image active severe weather and emergency alerts image image weather storm and storm spotter reports image weather observation monitoring service image
Local
Radar
Active
Alerts
Storm Reports Obs
Monitoring

iAlert Weather and Emergency Alert Notification Services:


ialert severe weather and emergency alerts by text message and email ialert daily weather forecast by email and text message service ialert real-time weather-observation monitoring and alert notification service ialert storm report monitoring alert notification

Observation History for Philadelphia, Northeast Philadelphia Airport, PA


Time Wind
(mph)
Vis
(mi)
Weather Precip (in) Temperature (F) Relative
Humidity
Wind
Chill
(°F)
Heat
Index
(°F)
Pressure
Air Dwpt altimeter
(in)
sea level
(mb)
7:54 pm EST NE 6.9 2.00 Light Freezing Rain Fog/Mist 00.03 35.0 30.9 85% 29 NA 30.26 1024.7
6:54 pm EST E 6.9 2.00 Unknown Precip Fog/Mist 00.03 34.0 30.9 89% 28 NA 30.29 1025.7
5:54 pm EST E 8.1 2.50 Light Freezing Rain Fog/Mist 00.03 33.0 30.0 89% 26 NA 30.33 1027.0
4:54 pm EST NE 8.1 1.75 Fog/Mist 00.04 33.0 28.9 85% 26 NA 30.36 1028.3
3:54 pm EST NE 8.1 1.25 Light Freezing Rain Fog/Mist 00.07 32.0 28.0 85% 25 NA 30.39 1029.3
2:54 pm EST NE 5.8 0.75 Light Snow 00.05 31.0 26.1 82% 25 NA 30.42 1030.3
1:54 pm EST E 6.9 0.75 Light Snow 00.04 30.0 25.0 82% 23 NA 30.45 1031.2
12:54 pm EST E 8.1 0.50 Snow 00.08 29.0 24.1 82% 21 NA 30.49 1032.7
11:54 am EST SE 5.8 0.25 Heavy Snow 00.06 28.0 23.0 81% 22 NA 30.55 1034.7
10:54 am EST N 0.0 1.00 Light Snow -- 28.0 21.9 78% NA NA 30.61 1036.7
9:54 am EST 4.6 7.00 Snow Trace 31.0 12.9 47% 26 NA 30.62 1037.1
8:54 am EST SE 6.9 10.00 Overcast -- 32.0 12.0 43% 26 NA 30.61 1036.6
7:54 am EST E 6.9 10.00 Overcast -- 31.0 10.9 43% 24 NA 30.59 1035.9
6:54 am EST NE 5.8 10.00 Overcast -- 31.0 12.0 45% 25 NA 30.58 1035.6
5:54 am EST NE 9.2 10.00 Fair -- 31.0 12.0 45% 23 NA 30.57 1035.3
4:54 am EST NE 4.6 10.00 Fair -- 30.0 14.0 51% 25 NA 30.60 1036.4
3:54 am EST N 4.6 10.00 Fair -- 31.0 10.9 43% 26 NA 30.61 1036.7
2:54 am EST NE 4.6 10.00 Fair -- 31.0 12.0 45% 26 NA 30.63 1037.1
1:54 am EST N 0.0 10.00 Fair -- 31.0 10.0 42% NA NA 30.63 1037.4
12:54 am EST NE 4.6 10.00 Fair -- 31.0 10.0 42% 26 NA 30.62 1036.9
11:54 pm EST N 4.6 10.00 Fair -- 32.0 9.0 38% 27 NA 30.61 1036.7
10:54 pm EST N 6.9 10.00 Fair -- 33.0 10.0 38% 27 NA 30.61 1036.5
9:54 pm EST NW 6.9 10.00 Fair -- 33.0 10.0 38% 27 NA 30.62 1036.9
8:54 pm EST NW 5.8 10.00 Fair -- 33.0 10.0 38% 28 NA 30.62 1037.0

Regional Weather Observation


Doylestown, Doylestown Airport, PA (KDYL)

Unknown Precip Fog/Mist
31.0 F

Quakertown Airport, PA (KUKT)

Fog/Mist
30.0 F

Pottstown, Pottstown Limerick Airport, PA (KPTW)

Light Freezing Rain Fog/Mist
30.0 F

Allentown Queen City Municipal Airport, PA (KXLL)

NULL
59.0 F

Allentown, Lehigh Valley International Airport, PA (KABE)

Light Freezing Rain Fog/Mist
31.0 F

Trenton, Mercer County Airport, NJ (KTTN)

Light Rain Fog/Mist
35.0 F

Advertise Here


Advertise Here